Regional Weather Roundup
Issued by NWS

Home | Current Version | Previous Version | Text Only | Print | Product List | Glossary Off
Versions: 1 2 3 4 5 6 7 8 9 10 11 12 13 14 15 16 17 18 19 20 21 22 23 24 25 26 27 28 29 30 31 32 33 34 35 36 37 38 39 40 41 42 43 44 45 46 47 48 49 50

000
ASUS44 KMEG 061700
RWRTN
TENNESSEE HOURLY STATE WEATHER ROUNDUP
NATIONAL WEATHER SERVICE MEMPHIS TN
1200 PM CDT FRI MAY 06 2016

TNZ002-004-019-021-049-052-054-088>092-061800-
WEST TENNESSEE

CITY           SKY/WX    TMP DP  RH WIND       PRES   REMARKS
MEMPHIS INTL   MOSUNNY   71  49  45 NW10      30.10F
NWS MEMPHIS      N/A     70 N/A N/A MISG        N/A
JACKSON        MOSUNNY   71  45  39 N10G16    30.08S
DYERSBURG      SUNNY     70  45  40 NW6G16    30.09S
UNION CITY     SUNNY     68  43  40 NW9       30.07S
LEXINGTON      SUNNY     66  39  37 N13       30.05F
$$

TNZ008-025-027-028-033-062-065-066-061800-
NORTH MIDDLE TENNESSEE

CITY           SKY/WX    TMP DP  RH WIND       PRES   REMARKS
NASHVILLE      MOSUNNY   70  40  33 N13G20    30.03F
CLARKSVILLE    MOSUNNY   67  46  47 N10       30.05F
COOKEVILLE     SUNNY     66  48  52 NW14G20   30.00F
CROSSVILLE     MOSUNNY   61  41  47 N14G24    30.00F
$$

TNZ061-075-076-078-094-096-097-061800-
SOUTH MIDDLE TENNESSEE

CITY           SKY/WX    TMP DP  RH WIND       PRES   REMARKS
TULLAHOMA      SUNNY     64  45  48 N10       30.02F
WINCHESTER     MOSUNNY   66  43  42 N12       30.01F
MCMINNVILLE    MOSUNNY   64  46  52 N9        30.02S
COLUMBIA       SUNNY     68  43  40 VRB6      30.02F
SHELBYVILLE    SUNNY     70  48  46 N10       30.03F
$$

TNZ017-018-042-046-047-061800-
NORTHEAST TENNESSEE

CITY           SKY/WX    TMP DP  RH WIND       PRES   REMARKS
TRI CITIES     CLOUDY    58  42  55 NW7       29.92F
$$

TNZ012-013-036-069-073-074-061800-
CENTRAL EAST TENNESSEE

CITY           SKY/WX    TMP DP  RH WIND       PRES   REMARKS
KNOXVILLE      MOSUNNY   64  40  41 NW15G23   29.95F
OAK RIDGE      PTSUNNY   65  36  34 VRB6      29.96F
GATLINBURG     PTSUNNY   61  43  51 N8        29.94F
$$

TNZ083-085-099-061800-
SOUTHEAST TENNESSEE

CITY           SKY/WX    TMP DP  RH WIND       PRES   REMARKS
CHATTANOOGA    PTSUNNY   68  40  35 N22G28    29.98F
$$

SKY/WX REPORTED AS FAIR MEANS FEW OR NO CLOUDS BELOW
12 THOUSAND FEET.




USA.gov is the U.S. government's official web portal to all federal, state and local government web resources and services.